Tracking 29892 objects as of 21-Nov-2024
HD Live streaming from Space Station
objects crossing your sky now

COSMOS 970 DEB

Track COSMOS 970 DEB now!
10-day predictions


NORAD ID: 10577
Int'l Code: 1977-121U
Perigee: 906.4 km
Apogee: 1,115.4 km
Inclination: 65.8 °
Period: 105.2 minutes
Semi major axis: 7381 km
RCS: 0.147 m2 (medium)
Launch date: December 21, 1977
Source: Commonwealth of Independent States (former USSR) (CIS)
Launch site: TYURATAM MISSILE AND SPACE COMPLEX (TTMTR)

Note: This is SATELLITE DEBRIS
Your satellite tracking list
Your tracking list is empty




NASA's NSSDC Master Catalog

Two Line Element Set (TLE):
1 10577U 77121U   24325.95297684  .00000308  00000-0  41899-3 0  9999
2 10577  65.7953 317.1364 0141571 229.5767 148.6745 13.68833437339342
Source of the keplerian elements: AFSPC